User: anonymous   Login
Location: Cran-Gévrier
(45.9039°N, 6.1012°E)
Time: 13:13:20
(UTC+00:00)
Language:

XW-2C - Orbit

View from above orbital plane
View from above orbital plane
View from above satellite
View from above satellite

Ground track
Ground track

The orbit data is extracted from the following two-line orbital elements,

1 40906U 15049H   23342.10636603  .00012558  00000-0  40485-3 0  9992
2 40906  97.4910 350.4674 0008044 269.3309  90.7011 15.32282105454974
Epoch (UTC): 08 December 2023 02:33:10
Eccentricity: 0.0008044
inclination: 97.4910°
perigee height: 463 km
apogee height: 474 km
right ascension of ascending node: 350.4674°
argument of perigee: 269.3309°
revolutions per day: 15.32282105
mean anomaly at epoch: 90.7011°
orbit number at epoch: 45497

The dashed part of the orbit path shows where the satellite is in the earth's shadow,  

DLR